Weather History for EINN - May, 2012

Change the Weather History Date:

Saturday, May 5, 2012

  Actual Average Record
Temperature  
Mean Temperature 44 °F -  
Max Temperature 52 °F 61 °F 64 °F (1999)
Min Temperature 36 °F 46 °F 36 °F (2012)
Degree Days  
Heating Degree Days 21    
Moisture  
Dew Point 36 °F    
Average Humidity 66    
Maximum Humidity 93    
Minimum Humidity 36    
Precipitation  
Precipitation 0.00 in 0.08 in - ()
Sea Level Pressure  
Sea Level Pressure 29.91 in    
Wind  
Wind Speed 9 mph ()    
Max Wind Speed 15 mph    
Max Gust Speed -    
Visibility 6.5 miles    
Events Rain    
Averages and records for this station are not official NWS values.
T = Trace of Precipitation, MM = Missing Value Source: Averaged Metar Reports

Daily Weather History Graph

Daily Weather History Graph

Search for Another Location

Airport or City:

Trip Planner

Search our weather history database for the weather conditions in past years. The results will help you decide how hot, cold, wet, or windy it might be!

Date:

Astronomy

May. 05, 2012 Rise Set
Actual Time 5:55 AM IST 9:10 PM IST
Civil Twilight 5:14 AM IST 9:51 PM IST
Nautical Twilight 4:20 AM IST 10:46 PM IST
Astronomical Twilight 3:06 AM IST 12:01 AM IST
Moon 8:48 PM IST (5/5) 5:12 AM IST (5/5)
Length of Visible Light 16h 36m
Length of Day
15h 15m
Waxing Gibbous, 99% of the Moon is Illuminated
May 5
Waxing Gibbous
May 6
Full
May 12
Last Quarter
May 21
New
May 28
First Quarter

Hourly Weather History & Observations

Time (IST) Temp. Windchill Dew Point Humidity Pressure Visibility Wind Dir Wind Speed Gust Speed Precip Events Conditions
12:00 AM 48.2 °F - 41.0 °F 76% 29.86 in 6.2 mi NNE 15.0 mph - N/A   Mostly Cloudy
12:30 AM 48.2 °F - 41.0 °F 76% 29.89 in 6.2 mi NNE 12.7 mph - N/A   Mostly Cloudy
1:00 AM 46 °F - 40 °F 72% 29.89 in 12 mi North 11.2 mph - - Rain Light Rain Showers
1:00 AM 46.4 °F 41.1 °F 39.2 °F 76% 29.89 in 6.2 mi North 11.5 mph - N/A Rain Light Rain Showers
1:30 AM 46.4 °F 41.1 °F 39.2 °F 76% 29.89 in 6.2 mi North 11.5 mph - N/A   Mostly Cloudy
2:00 AM 44.6 °F 39.2 °F 37.4 °F 76% 29.89 in 6.2 mi North 10.4 mph - N/A   Mostly Cloudy
2:30 AM 44.6 °F 38.4 °F 37.4 °F 76% 29.89 in 6.2 mi North 12.7 mph - N/A   Mostly Cloudy
3:00 AM 42.8 °F 36.2 °F 37.4 °F 81% 29.86 in 6.2 mi NNE 12.7 mph - N/A   Mostly Cloudy
3:30 AM 42.8 °F 36.2 °F 35.6 °F 76% 29.86 in 6.2 mi NNE 12.7 mph - N/A   Scattered Clouds
4:00 AM 42.8 °F 38.0 °F 37.4 °F 81% 29.89 in 6.2 mi North 8.1 mph - N/A   Mostly Cloudy
4:30 AM 42.8 °F 38.0 °F 35.6 °F 76% 29.89 in 6.2 mi NNE 8.1 mph - N/A   Mostly Cloudy
5:00 AM 41.0 °F 37.1 °F 35.6 °F 81% 29.89 in 6.2 mi North 5.8 mph - N/A   Mostly Cloudy
5:30 AM 39.2 °F 35.0 °F 35.6 °F 87% 29.89 in 6.2 mi NNW 5.8 mph - N/A   Mostly Cloudy
6:00 AM 37.4 °F 32.1 °F 35.6 °F 93% 29.89 in 6.2 mi NW 6.9 mph - N/A   Scattered Clouds
6:30 AM 37.4 °F 32.1 °F 33.8 °F 87% 29.89 in 6.2 mi NNW 6.9 mph - N/A   Mostly Cloudy
7:00 AM 38 °F - 35 °F 86% 29.91 in 16 mi North 6.7 mph - -   Partly Cloudy
7:00 AM 37.4 °F 32.1 °F 33.8 °F 87% 29.89 in 6.2 mi North 6.9 mph - N/A   Scattered Clouds
7:30 AM 39.2 °F 37.0 °F 37.4 °F 93% 29.89 in 6.2 mi NNW 3.5 mph - N/A   Mostly Cloudy
8:00 AM 41.0 °F 39.0 °F 39.2 °F 93% 29.89 in 6.2 mi North 3.5 mph - N/A   Scattered Clouds
8:30 AM 44.6 °F 40.2 °F 39.2 °F 81% 29.89 in 6.2 mi NE 8.1 mph - N/A   Scattered Clouds
9:00 AM 46.4 °F 41.9 °F 39.2 °F 76% 29.92 in 6.2 mi ENE 9.2 mph - N/A   Scattered Clouds
9:30 AM 48.2 °F - 39.2 °F 71% 29.92 in 6.2 mi ENE 9.2 mph - N/A   Scattered Clouds
10:00 AM 48.2 °F - 39.2 °F 71% 29.92 in 6.2 mi NE 10.4 mph - N/A   Scattered Clouds
10:30 AM 48.2 °F - 37.4 °F 66% 29.92 in 6.2 mi ENE 9.2 mph - N/A   Mostly Cloudy
11:00 AM 48.2 °F - 37.4 °F 66% 29.92 in 6.2 mi ENE 10.4 mph - N/A   Scattered Clouds
11:30 AM 50.0 °F - 37.4 °F 62% 29.92 in 6.2 mi East 9.2 mph - N/A   Mostly Cloudy
12:00 PM 50.0 °F - 35.6 °F 58% 29.92 in 6.2 mi East 9.2 mph - N/A   Mostly Cloudy
12:30 PM 50.0 °F - 35.6 °F 58% 29.92 in 6.2 mi East 10.4 mph - N/A   Mostly Cloudy
1:00 PM 51 °F - 35 °F 43% 29.93 in 25 mi ESE 11.2 mph - -   Partly Cloudy
1:00 PM 51.8 °F - 35.6 °F 54% 29.92 in 6.2 mi ESE 10.4 mph - N/A   Mostly Cloudy
1:30 PM 50.0 °F - 37.4 °F 62% 29.92 in 6.2 mi East 6.9 mph - N/A Rain Light Rain Showers
2:00 PM 48.2 °F - 35.6 °F 62% 29.92 in 6.2 mi ENE 10.4 mph - N/A   Mostly Cloudy
2:30 PM 50.0 °F - 35.6 °F 58% 29.92 in 6.2 mi East 11.5 mph - N/A   Mostly Cloudy
3:00 PM 51.8 °F - 35.6 °F 54% 29.92 in 6.2 mi ENE 10.4 mph - N/A   Mostly Cloudy
3:30 PM 51.8 °F - 35.6 °F 54% 29.92 in 6.2 mi ENE 10.4 mph - N/A   Mostly Cloudy
4:00 PM 51.8 °F - 33.8 °F 50% 29.92 in 6.2 mi NE 8.1 mph - N/A   Mostly Cloudy
4:30 PM 51.8 °F - 35.6 °F 54% 29.92 in 6.2 mi East 8.1 mph - N/A   Mostly Cloudy
5:00 PM 51.8 °F - 33.8 °F 50% 29.92 in 6.2 mi East 9.2 mph - N/A   Mostly Cloudy
5:30 PM 51.8 °F - 33.8 °F 50% 29.92 in 6.2 mi East 4.6 mph - N/A   Mostly Cloudy
6:00 PM 51.8 °F - 33.8 °F 50% 29.92 in 6.2 mi ESE 9.2 mph - N/A   Mostly Cloudy
6:30 PM 51.8 °F - 33.8 °F 50% 29.92 in 6.2 mi East 5.8 mph - N/A   Mostly Cloudy
7:00 PM 50 °F - 31 °F 36% 29.92 in 25 mi ENE 6.7 mph - -   Partly Cloudy
7:00 PM 50.0 °F - 32.0 °F 50% 29.92 in 6.2 mi ENE 6.9 mph - N/A   Mostly Cloudy
7:30 PM 50.0 °F - 32.0 °F 50% 29.92 in 6.2 mi NE 9.2 mph - N/A   Mostly Cloudy
8:00 PM 48.2 °F - 33.8 °F 58% 29.92 in 6.2 mi NNE 8.1 mph - N/A   Mostly Cloudy
8:30 PM 48.2 °F - 35.6 °F 62% 29.92 in 6.2 mi NE 8.1 mph - N/A   Mostly Cloudy
9:00 PM 48.2 °F - 33.8 °F 58% 29.92 in 6.2 mi NE 6.9 mph - N/A   Mostly Cloudy
9:30 PM 48.2 °F - 32.0 °F 54% 29.92 in 6.2 mi NE 8.1 mph - N/A   Overcast
10:00 PM 48.2 °F - 32.0 °F 54% 29.92 in 6.2 mi ENE 8.1 mph - N/A   Overcast
10:30 PM 46.4 °F 42.4 °F 32.0 °F 57% 29.92 in 6.2 mi ENE 8.1 mph - N/A   Mostly Cloudy
11:00 PM 46.4 °F 42.9 °F 32.0 °F 57% 29.92 in 6.2 mi ENE 6.9 mph - N/A   Mostly Cloudy
11:30 PM 44.6 °F 39.7 °F 32.0 °F 61% 29.92 in 6.2 mi East 9.2 mph - N/A   Mostly Cloudy